Regional Weather Roundup
Issued by NWS Columbia, SC

Home | Current Version | Previous Version | Text Only | Print | Product List | Glossary On
Versions: 1 2 3 4 5 6 7 8 9 10 11 12 13 14 15 16 17 18 19 20 21 22 23 24 25 26 27 28 29 30 31 32 33 34 35 36 37 38 39 40 41 42 43 44 45 46 47 48 49 50
000
ASUS42 KCAE 041210
RWRCAE
REGIONAL WEATHER ROUNDUP
NATIONAL WEATHER SERVICE COLUMBIA SC
800 AM EDT SAT JUL 04 2015

NOTE: "FAIR" INDICATES FEW OR NO CLOUDS BELOW 12,000 FEET WITH NO
SIGNIFICANT WEATHER AND/OR OBSTRUCTIONS TO VISIBILITY.

NOT ALL STATIONS ARE QUALITY CONTROLLED BY THE NATIONAL
WEATHER SERVICE. USE DATA WITH CAUTION...ESPECIALLY
DEWPOINT OBSERVATIONS.

SCZ001>056-GAZ040-063>065-077-041300-
...UPSTATE SOUTH CAROLINA...

CITY           SKY/WX    TMP DP  RH WIND       PRES   REMARKS
ANDERSON       LGT RAIN  72  68  87 SW8       30.02S
6HR MIN TEMP:  71; 6HR MAX TEMP:  73; 6HR PCP:  0.01;

SPARTANBURG      N/A     73  70  88 W9        30.00F
CLEMSON        CLOUDY    72  68  87 SW5       30.04R
6HR MIN TEMP:  72; 6HR MAX TEMP:  74; 6HR PCP: TRACE;

GREENVILLE     CLOUDY    73  66  78 W12       30.02S
6HR MIN TEMP:  71; 6HR MAX TEMP:  73;

GREENWOOD      CLOUDY    70  68  93 SW5       30.03F
6HR MIN TEMP:  69; 6HR MAX TEMP:  74; 6HR PCP:  0.03;

GREER          CLOUDY    74  68  81 W7        30.00S
6HR MIN TEMP:  71; 6HR MAX TEMP:  74; 6HR PCP: TRACE;

ROCK HILL      PTSUNNY   74  68  81 SW10      30.00F
6HR MIN TEMP:  72; 6HR MAX TEMP:  75;

CHESTER        CLOUDY    73  68  83 SW3       30.01F
LAURENS        CLOUDY    70  70 100 SW7       30.01F


...CENTRAL SOUTH CAROLINA...

CITY           SKY/WX    TMP DP  RH WIND       PRES   REMARKS
COLUMBIA APT   CLOUDY    72  68  87 S3        30.02F
6HR MIN TEMP:  70; 6HR MAX TEMP:  77; 6HR PCP:  0.07;

COLUMBIA OWENS CLOUDY    72  67  84 CALM      30.04F
6HR MIN TEMP:  71; 6HR MAX TEMP:  78; 6HR PCP:  0.06;

DARLINGTON     CLOUDY    73  66  78 SW14G22   30.02F
6HR MIN TEMP:  73; 6HR MAX TEMP:  79;

FLORENCE       CLOUDY    73  69  87 SW10      30.03R
6HR MIN TEMP:  71; 6HR MAX TEMP:  78; 6HR PCP:  0.08;

MCENTIRE ANGB  CLOUDY    71  68  92 S5        30.03F
6HR MIN TEMP:  70; 6HR MAX TEMP:  75; 6HR PCP:  0.09;

ORANGEBURG     CLOUDY    72  68  87 S6        30.05F
6HR MIN TEMP:  70; 6HR MAX TEMP:  74; 6HR PCP:  0.10;

SUMTER SHAW    CLOUDY    72  68  88 SW8       30.02F
6HR MIN TEMP:  70; 6HR MAX TEMP:  75; 6HR PCP:  0.36;

NEWBERRY       CLOUDY    66  64  94 SW6       30.05F
BARNWELL       FAIR      72  70  94 CALM      30.06F
MANNING        RAIN      72  57  60 SW6       30.06F
CAMDEN         FAIR      72  68  88 SW6       30.03F
LANCASTER      CLOUDY    73  70  88 SW9       30.01S
WINNSBORO      CLOUDY    70  68  94 SW5       30.02F


...EASTERN AND COASTAL SOUTH CAROLINA...

CITY           SKY/WX    TMP DP  RH WIND       PRES   REMARKS
MYRTLE BEACH   MOSUNNY   75  66  73 W12       30.06S
N MYRTLE BCH   PTSUNNY   77  67  71 W9        30.03S
6HR MIN TEMP:  76; 6HR MAX TEMP:  80;

CONWAY         FAIR      75  70  83 SW8       30.05R
MARION         FAIR      73  68  83 SW10      30.04R
HARTSVILLE     FAIR      72  66  83 SW6       30.01F
FLORENCE       CLOUDY    73  69  87 SW10      30.03R
6HR MIN TEMP:  71; 6HR MAX TEMP:  78; 6HR PCP:  0.08;

DARLINGTON     CLOUDY    73  66  78 SW14G22   30.02F
6HR MIN TEMP:  73; 6HR MAX TEMP:  79;

CHARLESTON APT MOSUNNY   73  69  87 W3        30.08R
6HR MIN TEMP:  70; 6HR MAX TEMP:  80; 6HR PCP:  0.04;

MOUNT PLEASANT LGT RAIN  73  70  88 CALM      30.07S
WALTERBORO     PTSUNNY   72  68  88 CALM      30.08F
BEAUFORT       MOSUNNY   78  71  79 NW8       30.08S
6HR MIN TEMP:  76; 6HR MAX TEMP:  81;



...EASTERN GEORGIA...

CITY           SKY/WX    TMP DP  RH WIND       PRES   REMARKS
AUGUSTA BUSH F CLOUDY    73  68  84 CALM      30.04S
6HR MIN TEMP:  70; 6HR MAX TEMP:  74; 6HR PCP:  0.01;

AUGUSTA DANIEL CLOUDY    72  67  84 CALM      30.06R
6HR MIN TEMP:  70; 6HR MAX TEMP:  76; 6HR PCP:  0.19;

THOMSON        CLOUDY    71  70  98 S3        30.10R
6HR MIN TEMP:  70; 6HR MAX TEMP:  76;

WASHINGTON     FAIR      70  70 100 SW3       30.06R
CLAXTON        FAIR      77  70  78 CALM      30.08S
SYLVANIA       MOSUNNY   75  71  87 CALM      30.07F
6HR MIN TEMP:  73; 6HR MAX TEMP:  76;

SAVANNAH       PTSUNNY   77  72  84 W3        30.09R
6HR MIN TEMP:  75; 6HR MAX TEMP:  79;



...SOUTHERN NORTH CAROLINA...

CITY           SKY/WX    TMP DP  RH WIND       PRES   REMARKS
CHARLOTTE      PTSUNNY   75  68  78 SW12      29.99F
6HR MIN TEMP:  73; 6HR MAX TEMP:  75;

MONROE         CLOUDY    76  68  76 SW14G23   29.99S
6HR MIN TEMP:  74; 6HR MAX TEMP:  77;

WADESBORO      PTSUNNY   77  68  72 SW7       29.98S
6HR MIN TEMP:  75; 6HR MAX TEMP:  78;

ROCKINGHAM     PTSUNNY   76  69  77 SW14G21   29.99S
6HR MIN TEMP:  74; 6HR MAX TEMP:  76;

ASHEVILLE      CLOUDY    66  63  90 S8        30.03F
6HR MIN TEMP:  65; 6HR MAX TEMP:  69; 6HR PCP:  0.11;


$$



USA.gov is the U.S. government's official web portal to all federal, state and local government web resources and services.